sat.trackr.live / text

‹ back to catalog

STARLINK-30706

NORAD 57947 · 2023-148N

PAYLOAD ACTIVE UNKNOWN

§ Identity

Operator
Country
US
Launch date
2023-09-25
Launch site
AFWTR
Launch vehicle
Mass (kg)
RCS (m²)

Purposes: comms

External: N2YO · Heavens-Above · Gunter

§ Orbital elements

Epoch: 2026-09-19T07:42:07.577856Z

Period
93.85 min
Inclination
53.1628°
Eccentricity
0.0001826
Mean motion
15.34371735 rev/d
Perigee alt
461.5 km
Apogee alt
464.0 km
Semi-major
6,840.9 km
B*
1.9583e-4
RAAN
200.9491°
Arg perigee
106.2920°
Mean anomaly
253.8284°
Rev number
16,812

§ Raw data

STARLINK-307061 57947U 23148N   26262.32092104  .00006240  00000+0  19583-3 0  99992 57947  53.1628 200.9491 0001826 106.2920 253.8284 15.34371735168120

JSON: /api/v1/satellites/57947 · /tle

For live sub-satellite position, see the globe view (requires WebGL).

§ Visibility from observer

Set your observer location to see the next 7 days of passes ≥ 10°. The values pass through the URL so the page stays shareable.

No JS? Fill the form by hand. The geolocation button needs JavaScript.